Notices

What's New in latest Release from April 7th, 2021:

- Updated Glossary, including Speed of Maximum Gust, and Total Hourly Precipitation

- Updated national and regional climate services offices contacts and prices information

- Addition of station inventory lists for 1981-2010, 1971-2000, and 1961-1990 Normals.

If you haven't already, please take our survey and provide feedback about our website: https://eccc.sondage-survey.ca/f/LanguageSelection.aspx?s=442ca660-fcf1-47c0-95a9-59707d6fd709

Hourly Data Report for March 11, 2017

TORONTO CITY
ONTARIO

43°40'00.000" N
79°24'00.000" W
112.50 m
6158355
71508
XTO

Download Data

Hourly Data (March 2017)
Hourly Data Report for March 11, 2017
TIME
LST
Temp Definition
°C
Dew Point Definition
°C
Rel Hum Definition
%
Precip. Amount Definition
mm

Wind Dir Definition
10's deg

Wind Spd Definition
km/h
Visibility Definition
km
Stn Press Definition
kPa
Hmdx Definition


Wind Chill Definition


Weather Definition


00:00 -8.5 -15.7 56 0.0 LegendMM LegendMM   100.76     LegendNANA
01:00 -8.6 -15.6 57 0.0 LegendMM LegendMM   100.76     LegendNANA
02:00 -10.7 -14.9 72 0.0 LegendMM LegendMM   100.81     LegendNANA
03:00 -11.6 -15.9 71 0.0 LegendMM LegendMM   100.84     LegendNANA
04:00 -11.8 -16.4 68 0.0 LegendMM LegendMM   100.87     LegendNANA
05:00 -11.7 -19.5 52 0.0 LegendMM LegendMM   100.91     LegendNANA
06:00 -11.7 -19.2 53 0.0 LegendMM LegendMM   100.96     LegendNANA
07:00 -12.2 -18.2 61 0.0 LegendMM LegendMM   101.01     LegendNANA
08:00 -11.6 -17.8 60 0.0 LegendMM LegendMM   101.06     LegendNANA
09:00 -11.0 -17.5 59 0.2 LegendMM LegendMM   101.08     LegendNANA
10:00 -9.0 -18.2 47 0.0 LegendMM LegendMM   101.05     LegendNANA
11:00 -6.3 -16.5 44 0.0 LegendMM LegendMM   101.04     LegendNANA
12:00 -6.8 -19.0 37 0.0 LegendMM LegendMM   101.06     LegendNANA
13:00 -6.1 -18.3 37 0.0 LegendMM LegendMM   101.06     LegendNANA
14:00 -6.0 -17.4 40 0.0 LegendMM LegendMM   101.05     LegendNANA
15:00 -5.8 -15.2 47 0.0 LegendMM LegendMM   101.06     LegendNANA
16:00 -6.5 -16.1 46 0.0 LegendMM LegendMM   101.08     LegendNANA
17:00 -6.1 -14.7 51 0.0 LegendMM LegendMM   101.09     LegendNANA
18:00 -7.9 -12.1 72 0.0 LegendMM LegendMM   101.17     LegendNANA
19:00 -8.4 -12.3 74 0.0 LegendMM LegendMM   101.21     LegendNANA
20:00 -8.5 -13.3 69 0.0 LegendMM LegendMM   101.28     LegendNANA
21:00 -9.0 -13.7 68 0.0 LegendMM LegendMM   101.31     LegendNANA
22:00 -9.9 -14.1 71 0.0 LegendMM LegendMM   101.38     LegendNANA
23:00 -10.1 -14.6 70 0.0 LegendMM LegendMM   101.41     LegendNANA

Notes on Data Quality.

Legend

  • E = Estimated
  • M = Missing
  • NA = Not Available*
  • [empty] = Indicates an unobserved value
Date modified: